FW8194 Weather Reports


time (UTC)temp
F
wind
direction
speed
knots
gust
knots
rain 1hr
in
rain 24hr
in
rain mn
in
humidity
%
barometer
mb
20260507065120 49 246 5.2 8.7 0.00 0.00 0.00 99 1003.8
20260507064620 49 233 6.1 8.7 0.00 0.00 0.00 99 1003.7
20260507064120 49 248 5.2 9.6 0.00 0.00 0.00 99 1003.6
20260507063620 49 255 4.3 7.8 0.00 0.00 0.00 99 1003.6
20260507063120 49 255 7.0 9.6 0.00 0.00 0.00 99 1003.5
20260507062620 49 262 7.0 11.3 0.00 0.00 0.00 99 1003.6
20260507062120 49 260 4.3 12.2 0.00 0.00 0.00 99 1003.6
20260507061620 49 255 8.7 12.2 0.00 0.00 0.00 99 1003.7
20260507061120 49 270 5.2 12.2 0.00 0.00 0.00 99 1003.8
20260507060620 49 257 7.0 13.9 0.00 0.00 0.00 99 1003.9
20260507060120 50 267 7.8 13.0 0.00 0.00 0.00 99 1003.7
20260507055620 51 259 7.8 13.0 0.00 0.00 0.00 99 1003.8
20260507055120 51 259 9.6 16.5 0.00 0.00 0.00 99 1003.7
20260507054620 50 263 10.4 15.6 0.00 0.00 0.00 99 1003.8
20260507054119 50 263 11.3 16.5 0.00 0.00 0.00 99 1003.9
20260507053619 50 260 10.4 14.8 0.00 0.00 0.00 99 1003.9
20260507053120 50 256 9.6 14.8 0.00 0.00 0.00 99 1004.0
20260507052619 49 259 9.6 15.6 0.00 0.00 0.00 99 1004.2
20260507052120 49 266 7.8 14.8 0.00 0.00 0.00 99 1004.3
20260507051619 49 250 8.7 15.6 0.00 0.00 0.00 99 1004.5
20260507051120 50 260 8.7 14.8 0.00 0.00 0.00 99 1004.7
20260507050619 50 264 7.8 13.9 0.00 0.00 0.00 99 1004.8
20260507050119 50 267 9.6 19.1 0.00 0.00 0.00 99 1004.8
20260507045620 51 263 13.0 19.1 0.00 0.00 0.00 99 1004.8
20260507045119 51 262 12.2 19.1 0.00 0.00 0.00 99 1004.8
20260507044619 51 263 10.4 20.0 0.00 0.00 0.00 99 1004.8
20260507044119 51 267 13.0 18.2 0.00 0.00 0.00 99 1005.1
20260507043619 51 271 9.6 17.4 0.00 0.00 0.00 99 1004.6
20260507043119 50 260 13.9 16.5 0.00 0.00 0.00 99 1004.8
20260507042619 50 256 12.2 17.4 0.00 0.00 0.00 99 1004.8
20260507042119 50 255 12.2 20.0 0.00 0.00 0.00 99
20260507041619 50 252 11.3 16.5 0.00 0.00 0.00 99 1005.0
20260507041119 50 255 11.3 17.4 0.00 0.00 0.00 99 1005.0
20260507040619 50 254 10.4 16.5 0.00 0.00 0.00 99 1004.9
20260507040119 50 253 9.6 15.6 0.00 0.00 0.00 99 1004.8
20260507035619 50 250 9.6 16.5 0.00 0.00 0.00 99 1004.9
20260507035119 50 254 10.4 16.5 0.00 0.00 0.00 99 1004.9
20260507034619 50 256 9.6 16.5 0.00 0.00 0.00 99 1005.0
20260507034119 50 251 9.6 16.5 0.00 0.00 0.00 99 1005.0
20260507033619 50 267 7.8 15.6 0.00 0.00 0.00 99 1005.1
20260507033119 50 258 10.4 18.2 0.00 0.00 0.00 99 1005.1
20260507032619 50 259 9.6 18.2 0.00 0.00 0.00 99
20260507032119 50 265 7.8 14.8 0.00 0.00 0.00 99 1005.1
20260507031619 50 265 6.1 14.8 0.00 0.00 0.00 99 1005.0
20260507031119 50 258 7.8 14.8 0.00 0.00 0.00 99 1004.8
20260507030619 50 250 7.0 16.5 0.00 0.00 0.00 99 1004.9
20260507030119 50 129 7.0 18.2 0.00 0.00 0.00 99 1004.9
20260507025619 50 37 5.2 13.0 0.00 0.00 0.00 99 1004.9
20260507025119 50 49 6.1 14.8 0.00 0.00 0.00 99 1004.7
20260507024619 50 51 6.1 13.0 0.00 0.00 0.00 99 1004.9
20260507024119 50 68 0.0 17.4 0.00 0.00 0.00 99 1004.9
20260507023619 50 42 5.2 20.0 0.00 0.00 0.00 99 1004.9
20260507023119 50 49 6.1 11.3 0.00 0.00 0.00 99 1004.9
20260507022619 50 75 5.2 16.5 0.00 0.00 0.00 99 1004.8
20260507022119 50 325 7.0 18.2 0.00 0.00 0.00 99 1005.0
20260507021619 50 70 6.1 14.8 0.00 0.00 0.00 99 1005.2
20260507021119 50 335 5.2 13.0 0.00 0.00 0.00 99 1005.1
20260507020619 50 52 5.2 13.9 0.00 0.00 0.00 99 1005.2
20260507020119 50 46 6.1 17.4 0.00 0.00 0.00 99 1003.8
20260507015619 50 39 5.2 13.9 0.00 0.00 0.00 99 1005.3
20260507015119 50 32 7.0 14.8 0.00 0.00 0.00 99 1005.3
20260507014636 50 57 6.1 14.8 0.00 0.00 0.00 99 1005.3
20260507014119 50 43 5.2 15.6 0.00 0.00 0.00 98 1005.4
20260507013619 50 48 4.3 13.9 0.00 0.00 0.00 98 1005.3
20260507013119 50 52 5.2 16.5 0.00 0.00 0.00 98 1005.4
20260507012619 50 50 5.2 13.9 0.00 0.00 0.00 98 1005.4
20260507012119 51 41 5.2 13.9 0.00 0.00 0.00 98 1005.5
20260507011619 51 67 5.2 13.0 0.00 0.00 0.00 98 1005.4
20260507011119 51 69 5.2 17.4 0.00 0.00 0.00 98 1005.5
20260507010619 51 65 6.1 13.9 0.00 0.00 0.00 98 1005.7
20260507010119 51 61 5.2 14.8 0.00 0.00 0.00 98 1005.7
20260507005619 51 48 6.1 15.6 0.00 0.00 0.00 98 1005.8
20260507005119 51 45 6.1 13.9 0.00 0.00 0.00 98 1005.6
20260507004619 51 56 6.1 17.4 0.00 0.00 0.00 98 1005.6
20260507004119 51 57 7.0 19.1 0.00 0.00 0.00 98 1005.5
20260507003619 51 44 7.0 19.1 0.00 0.00 0.00 98 1005.3
20260507003119 51 37 6.1 15.6 0.00 0.00 0.00 98 1005.4
20260507002619 51 62 6.1 16.5 0.00 0.00 0.00 98 1005.4
20260507002119 51 55 6.1 13.0 0.00 0.00 0.00 98 1005.5
20260507001618 51 57 6.1 16.5 0.00 0.00 0.00 98 1005.5
20260507001119 51 37 5.2 14.8 0.00 0.00 0.00 98 1005.5
20260507000619 51 69 5.2 17.4 0.00 0.00 0.00 98 1005.3
20260507000136 51 205 7.8 16.5 0.00 0.00 0.00 98 1005.4
20260506235618 51 103 6.1 16.5 0.00 0.00 0.00 98 1005.4
20260506235118 51 69 7.0 21.7 0.00 0.00 0.00 98 1005.5
20260506234619 51 105 7.0 18.2 0.00 0.00 0.00 98 1005.5
20260506234119 51 43 7.8 18.2 0.00 0.00 0.00 98 1003.9
20260506233618 52 68 5.2 23.5 0.00 0.00 0.00 98
20260506233118 52 196 9.6 24.3 0.00 0.00 0.00 98 1004.9
20260506232518 52 38 7.0 21.7 0.00 0.00 0.00 98 1005.1
20260506232019 52 258 0.0 22.6 0.00 0.00 0.00 98 1004.9
20260506231519 51 169 10.4 26.1 0.00 0.00 0.00 98 1005.0
20260506231019 52 203 7.8 23.5 0.00 0.00 0.00 98 1005.1
20260506230518 52 265 8.7 22.6 0.00 0.00 0.00 98 1005.1
20260506230019 52 147 8.7 22.6 0.00 0.00 0.00 98 1004.9
20260506225518 51 145 8.7 21.7 0.00 0.00 0.00 98 1004.9
20260506225018 51 153 7.8 20.0 0.00 0.00 0.00 98 1005.0
20260506224518 51 169 8.7 22.6 0.00 0.00 0.00 98 1005.0
20260506223918 51 168 0.0 22.6 0.00 0.00 0.00 98 1004.9
20260506223419 51 163 0.0 21.7 0.00 0.00 0.00 97 1005.0
20260506222918 51 170 8.7 25.2 0.00 0.00 0.00 97 1005.0
20260506222418 51 170 10.4 23.5 0.00 0.00 0.00 97 1004.9
20260506221818 51 172 13.0 24.3 0.00 0.00 0.00 97 1004.8
20260506221318 51 170 13.9 26.1 0.00 0.00 0.00 97 1004.9
20260506220818 51 175 0.0 23.5 0.00 0.00 0.00 97 1005.0
20260506220318 51 172 0.0 21.7 0.00 0.00 0.00 96 1005.2
20260506215818 51 168 0.0 25.2 0.00 0.00 0.00 96 1005.0
20260506215318 52 176 0.0 26.9 0.00 0.00 0.00 96 1005.1
20260506214818 52 176 0.0 26.9 0.00 0.00 0.00 96 1005.3
20260506214318 52 185 0.0 26.1 0.00 0.00 0.00 95 1005.1
20260506213818 52 198 0.0 26.1 0.00 0.00 0.00 95 1005.1
20260506213318 53 209 0.0 27.8 0.00 0.00 0.00 95 1005.4
20260506212818 53 176 0.0 25.2 0.00 0.00 0.00 95 1005.4
20260506212318 52 185 0.0 26.9 0.00 0.00 0.00 94 1005.5
20260506211818 52 180 13.0 26.1 0.00 0.00 0.00 94 1005.4
20260506211318 52 168 0.0 24.3 0.00 0.00 0.00 94 1005.3
20260506210818 52 167 0.0 26.1 0.00 0.00 0.00 94 1005.5
20260506210318 52 169 13.9 24.3 0.00 0.00 0.00 94 1005.3
20260506205818 52 177 15.6 26.9 0.00 0.00 0.00 94 1005.2
20260506205318 52 176 18.2 27.8 0.00 0.00 0.00 94 1005.1
20260506204818 52 177 16.5 29.5 0.00 0.00 0.00 94 1003.9
20260506204318 52 177 17.4 27.8 0.00 0.00 0.00 95 1005.3
20260506203818 52 177 19.1 30.4 0.00 0.00 0.00 95 1005.4
20260506203318 52 181 18.2 31.3 0.00 0.00 0.00 95 1005.0
20260506202718 52 174 13.0 25.2 0.00 0.00 0.00 95 1005.7
20260506202218 52 176 13.9 31.3 0.00 0.00 0.00 95 1005.5
20260506201718 52 176 15.6 26.9 0.00 0.00 0.00 94 1005.5
20260506201218 52 178 17.4 26.9 0.00 0.00 0.00 95 1005.4
20260506200718 52 177 14.8 25.2 0.00 0.00 0.00 94 1005.7
20260506200218 52 176 13.0 26.1 0.00 0.00 0.00 94 1005.8
20260506195718 52 174 0.0 26.1 0.00 0.00 0.00 94 1005.9
20260506195218 52 177 0.0 21.7 0.00 0.00 0.00 94 1006.0
20260506194718 52 167 11.3 23.5 0.00 0.00 0.00 94 1006.3
20260506194218 52 176 11.3 22.6 0.00 0.00 0.00 94 1006.2
20260506193718 52 167 13.0 23.5 0.00 0.00 0.00 94 1005.9
20260506193218 52 179 13.9 24.3 0.00 0.00 0.00 93 1006.3
20260506192718 52 167 11.3 24.3 0.00 0.00 0.00 93 1006.3
20260506192218 52 178 12.2 26.1 0.00 0.00 0.00 93 1006.2
20260506191718 52 176 0.0 25.2 0.00 0.00 0.00 93 1006.4
20260506191218 52 177 11.3 23.5 0.00 0.00 0.00 93 1006.4
20260506190718 52 174 0.0 25.2 0.00 0.00 0.00 93 1006.5
20260506190218 52 175 0.0 22.6 0.00 0.00 0.00 93 1006.7
20260506185718 52 170 10.4 23.5 0.00 0.00 0.00 93 1006.5
20260506185218 52 170 0.0 22.6 0.00 0.00 0.00 92 1006.8
20260506184718 52 171 0.0 24.3 0.00 0.00 0.00 92 1006.6
20260506184218 53 174 0.0 24.3 0.00 0.00 0.00 92 1006.7
20260506183718 53 187 0.0 22.6 0.00 0.00 0.00 92 1006.8
20260506183218 53 176 12.2 26.1 0.00 0.00 0.00 92 1006.8
20260506182718 53 178 0.0 26.1 0.00 0.00 0.00 92 1005.2
20260506182217 53 169 12.2 24.3 0.00 0.00 0.00 92 1006.7
20260506181717 53 181 0.0 25.2 0.00 0.00 0.00 91 1006.7
20260506181218 53 170 15.6 25.2 0.00 0.00 0.00 91 1006.7
20260506180718 54 171 0.0 27.8 0.00 0.00 0.00 91 1006.7
20260506180217 54 176 0.0 25.2 0.00 0.00 0.00 91 1007.1
20260506175717 54 165 0.0 23.5 0.00 0.00 0.00 91 1007.0
20260506175217 54 160 0.0 24.3 0.00 0.00 0.00 90 1007.4
20260506174717 54 159 0.0 29.5 0.00 0.00 0.00 90 1007.3
20260506174217 54 168 0.0 25.2 0.00 0.00 0.00 90 1007.7
20260506173720 54 182 0.0 26.1 0.00 0.00 0.00 91 1007.5
20260506173217 54 164 12.2 32.2 0.00 0.00 0.00 91 1007.7
20260506172717 54 173 0.0 26.1 0.00 0.00 0.00 91 1007.7
20260506172217 53 173 0.0 28.7 0.00 0.00 0.00 91 1007.7
20260506171718 53 171 0.0 24.3 0.00 0.00 0.00 91 1007.6
20260506171217 53 172 0.0 26.1 0.00 0.00 0.00 91 1007.7
20260506170717 54 173 0.0 26.9 0.00 0.00 0.00 90 1007.9
20260506170217 54 167 0.0 25.2 0.00 0.00 0.00 90 1007.8
20260506165717 55 179 12.2 23.5 0.00 0.00 0.00 89 1007.9
20260506165217 54 170 0.0 26.1 0.00 0.00 0.00 90 1007.7
20260506164717 54 177 12.2 24.3 0.00 0.00 0.00 90 1008.1
20260506164217 54 175 13.9 25.2 0.00 0.00 0.00 89 1008.1
20260506163717 54 174 11.3 25.2 0.00 0.00 0.00 89 1008.0
20260506163217 55 167 0.0 23.5 0.00 0.00 0.00 89 1008.2
20260506162717 55 174 0.0 26.1 0.00 0.00 0.00 90 1008.3
20260506162217 54 174 10.4 25.2 0.00 0.00 0.00 90 1008.2
20260506161717 54 167 11.3 25.2 0.00 0.00 0.00 90 1008.1
20260506161217 54 173 0.0 26.1 0.00 0.00 0.00 90 1008.2
20260506160717 54 167 0.0 29.5 0.00 0.00 0.00 90
20260506160217 54 174 12.2 25.2 0.00 0.00 0.00 91 1008.2
20260506155717 54 163 0.0 28.7 0.00 0.00 0.00 90 1008.5
20260506155217 54 165 0.0 26.1 0.00 0.00 0.00 90 1008.5
20260506154717 54 170 0.0 25.2 0.00 0.00 0.00 89 1008.7
20260506154217 55 180 0.0 24.3 0.00 0.00 0.00 89 1009.0
20260506153717 55 173 0.0 25.2 0.00 0.00 0.00 89 1008.8
20260506153217 55 166 0.0 24.3 0.00 0.00 0.00 89 1008.9
20260506152717 55 165 0.0 23.5 0.00 0.00 0.00 89 1008.9
20260506152217 55 169 0.0 25.2 0.00 0.00 0.00 89 1008.8
20260506151732 55 167 11.3 26.1 0.00 0.00 0.00 90 1008.8
20260506151217 54 170 0.0 26.1 0.00 0.00 0.00 90 1008.9
20260506150717 54 172 0.0 25.2 0.00 0.00 0.00 90 1009.0
20260506150217 54 171 0.0 25.2 0.00 0.00 0.00 90 1009.1
20260506145717 55 170 0.0 25.2 0.00 0.00 0.00 88 1008.9
20260506145217 55 174 0.0 25.2 0.00 0.00 0.00 89 1009.0
20260506144717 54 175 12.2 23.5 0.00 0.00 0.00 90 1008.8
20260506144217 54 169 0.0 23.5 0.00 0.00 0.00 90 1008.8
20260506143717 54 173 0.0 25.2 0.00 0.00 0.00 90 1008.9
20260506143217 54 169 0.0 23.5 0.00 0.00 0.00 91 1008.5
20260506142717 53 174 0.0 25.2 0.00 0.00 0.00 90 1008.7
20260506142117 54 163 0.0 25.2 0.00 0.00 0.00 89 1009.0
20260506141616 55 176 0.0 24.3 0.00 0.00 0.00 87 1008.9
20260506141117 56 192 0.0 23.5 0.00 0.00 0.00 88 1009.0
20260506140616 55 211 10.4 20.9 0.00 0.00 0.00 90 1009.2
20260506140116 55 172 8.7 21.7 0.00 0.00 0.00 88 1009.0
20260506135617 56 183 9.6 20.0 0.00 0.00 0.00 87 1009.0
20260506135117 56 181 0.0 20.9 0.00 0.00 0.00 86 1009.1
20260506134617 56 179 8.7 20.9 0.00 0.00 0.00 86 1009.3
20260506134116 56 246 8.7 20.0 0.00 0.00 0.00 87 1009.4
20260506133616 56 331 7.0 17.4 0.00 0.00 0.00 85 1009.6
20260506133133 57 57 6.1 16.5 0.00 0.00 0.00 85
20260506132617 57 39 7.0 18.2 0.00 0.00 0.00 87 1009.7
20260506132116 57 228 9.6 19.1 0.00 0.00 0.00 86 1009.8
20260506131616 57 238 11.3 19.1 0.00 0.00 0.00 86 1009.7
20260506131116 57 138 7.0 16.5 0.00 0.00 0.00 86 1009.7
20260506130616 57 39 7.8 22.6 0.00 0.00 0.00 87 1009.6
20260506130116 56 144 8.7 24.3 0.00 0.00 0.00 87 1009.4
20260506125616 56 171 0.0 22.6 0.00 0.00 0.00 88 1009.3
20260506125116 56 183 9.6 25.2 0.00 0.00 0.00 88 1007.8
20260506124616 56 228 11.3 24.3 0.00 0.00 0.00 88 1009.3
20260506124116 56 192 12.2 23.5 0.00 0.00 0.00 88 1009.3
20260506123616 56 168 8.7 21.7 0.00 0.00 0.00 88 1009.4
20260506123116 55 213 10.4 21.7 0.00 0.00 0.00 88 1009.4
20260506122616 55 204 7.8 20.9 0.00 0.00 0.00 88
20260506122116 55 243 9.6 19.1 0.00 0.00 0.00 89 1009.5
20260506121616 0 198 9.6 21.7 0.00 0.00 0.00 1009.4
20260506121116 54 333 7.0 19.1 0.00 0.00 0.00 90 1009.5
20260506120616 54 228 7.8 20.9 0.00 0.00 0.00 89 1009.6
20260506120116 55 161 7.8 17.4 0.00 0.00 0.00 90 1009.7
20260506115616 55 250 7.8 18.2 0.00 0.00 0.00 90 1009.7
20260506115116 54 128 7.8 18.2 0.00 0.00 0.00 91 1009.7
20260506114616 54 244 7.8 19.1 0.00 0.00 0.00 91 1009.7
20260506114116 54 99 8.7 17.4 0.00 0.00 0.00 92 1009.7
20260506113616 54 338 7.0 18.2 0.00 0.00 0.00 93
20260506113116 53 130 7.8 19.1 0.00 0.00 0.00 94 1009.8
20260506112616 53 211 10.4 22.6 0.00 0.00 0.00 95 1009.7
20260506112116 53 156 7.8 20.9 0.00 0.00 0.00 96 1009.6
20260506111616 52 193 8.7 25.2 0.00 0.00 0.00 96 1009.7
20260506111116 52 213 0.0 25.2 0.00 0.00 0.00 96 1009.6
20260506110616 51 184 7.8 26.1 0.00 0.00 0.00 96 1009.4
20260506110116 51 199 9.6 24.3 0.00 0.00 0.00 96 1009.3
20260506105616 51 208 10.4 24.3 0.00 0.00 0.00 96 1009.5
20260506105116 51 193 9.6 24.3 0.00 0.00 0.00 96 1009.5
20260506104616 51 214 8.7 18.2 0.00 0.00 0.00 96 1009.7
20260506104116 52 321 7.8 17.4 0.00 0.00 0.00 96 1009.7
20260506103616 52 341 7.0 17.4 0.00 0.00 0.00 97 1009.7
20260506103133 51 180 6.1 20.0 0.00 0.00 0.00 96 1009.7
20260506102616 51 50 7.8 16.5 0.00 0.00 0.00 97 1009.7
20260506102116 51 310 7.8 20.9 0.00 0.00 0.00 97 1009.6
20260506101616 51 228 9.6 18.2 0.00 0.00 0.00 97 1009.5
20260506101116 51 337 7.8 17.4 0.00 0.00 0.00 97 1009.5
20260506100616 51 260 7.0 19.1 0.00 0.00 0.00 97 1009.6
20260506100116 51 186 8.7 20.0 0.00 0.00 0.00 97 1009.6
20260506095616 51 227 0.0 19.1 0.00 0.00 0.00 97 1009.6
20260506095116 51 257 10.4 23.5 0.00 0.00 0.00 97 1009.3
20260506094616 51 199 0.0 22.6 0.00 0.00 0.00 97 1009.1
20260506094116 51 212 12.2 27.8 0.00 0.00 0.00 97 1009.1
20260506093616 51 214 11.3 23.5 0.00 0.00 0.00 97 1009.0
20260506093116 51 194 0.0 23.5 0.00 0.00 0.00 97 1009.1
20260506092616 51 160 0.0 26.1 0.00 0.00 0.00 97 1009.2
20260506092116 51 257 9.6 21.7 0.00 0.00 0.00 97 1009.5
20260506091615 51 274 0.0 17.4 0.00 0.00 0.00 97 1009.8
20260506091115 51 230 11.3 23.5 0.00 0.00 0.00 97 1009.8
20260506090615 51 229 10.4 19.1 0.00 0.00 0.00 97 1009.8
20260506090116 51 271 7.0 18.2 0.00 0.00 0.00 97 1009.7
20260506085616 51 49 8.7 21.7 0.00 0.00 0.00 97 1009.7
20260506085115 51 349 7.0 21.7 0.00 0.00 0.00 97 1009.7
20260506084616 51 248 8.7 25.2 0.00 0.00 0.00 97 1009.7
20260506084115 51 209 10.4 20.0 0.00 0.00 0.00 97 1009.5
20260506083616 51 119 0.0 22.6 0.00 0.00 0.00 97 1009.6
20260506083116 51 216 13.0 26.9 0.00 0.00 0.00 97 1009.6
20260506082616 51 186 0.0 24.3 0.00 0.00 0.00 97 1009.0
20260506082116 51 215 0.0 25.2 0.00 0.00 0.00 97 1009.4
20260506081615 51 206 12.2 20.0 0.00 0.00 0.00 97 1009.3
20260506081115 51 101 0.0 21.7 0.00 0.00 0.00 97 1009.6
20260506080615 51 236 0.0 22.6 0.00 0.00 0.00 97 1009.5
20260506080116 51 204 0.0 24.3 0.00 0.00 0.00 97 1009.6
20260506073115 51 203 12.2 23.5 0.00 0.00 0.00 97 1009.6
20260506072615 51 208 10.4 23.5 0.00 0.00 0.00 97 1009.7
20260506072115 51 182 12.2 22.6 0.00 0.00 0.00 97 1009.5
20260506071615 51 181 13.0 24.3 0.00 0.00 0.00 97 1009.5
20260506071115 51 187 0.0 25.2 0.00 0.00 0.00 97 1009.6
20260506070615 51 197 13.9 26.1 0.00 0.00 0.00 97 1009.2
20260506070115 51 202 0.0 25.2 0.00 0.00 0.00 97 1009.6